Temperature
18 18 19 19 18 18 17 16 15 14 13 12 11 11 11 10 10 10 10 9 9 8 8 8 8 7 7 7 7 6 6 6 6 5 5 5 6 6 6 6 6 6 6
18 18 18 18 17 17 16 16 15 14 14 13 13 12 11 10 10 10 9 9 9 8 8 7 7 7 6 6 6 6 6 5 5 4 4 3 5 6 6 6 6 6 6
16 17 17 17 16 16 16 15 15 14 13 13 12 11 10 10 10 10 10 9 9 8 8 7 7 6 6 6 6 5 5 5 5 4 3 3 3 5 5 5 6 6 6
16 16 16 16 15 15 15 14 14 13 13 12 11 11 11 11 11 10 10 9 9 8 8 7 7 6 6 5 5 5 4 4 4 3 3 3 3 2 3 4 4 4 4
15 15 15 15 15 14 14 14 13 12 12 12 11 11 10 10 10 10 9 9 9 8 8 7 7 6 6 5 5 4 4 4 3 3 3 2 2 1 0 1 2 2 3
15 15 14 14 14 14 14 13 13 12 12 11 11 11 10 10 10 9 9 9 8 8 8 7 7 6 6 5 5 4 4 3 3 2 2 1 1 1 0 -1 -0 0 1
14 14 14 14 13 13 13 13 12 12 12 11 11 11 10 10 9 9 9 8 8 8 8 7 7 6 6 5 5 4 4 3 3 2 2 1 1 1 0 -1 -1 -0 -0
14 14 13 13 13 13 12 12 12 11 11 11 11 10 10 10 9 9 9 8 8 8 7 7 6 6 5 5 4 4 3 3 2 2 2 1 0 -0 -1 -1 -2 -2 -2
13 13 13 12 12 12 12 11 11 11 11 10 10 10 9 9 9 8 8 8 7 7 7 6 6 5 5 5 4 3 3 3 2 2 1 1 0 -0 -1 -2 -2 -3 -3
13 12 12 12 11 11 11 11 10 10 10 9 9 9 8 8 8 7 7 7 7 7 6 6 6 5 5 4 4 3 3 3 2 2 1 1 0 -0 -1 -2 -3 -3 -4
12 12 11 11 11 10 10 10 9 9 9 8 8 8 8 7 7 7 7 6 6 6 6 6 5 5 5 4 4 3 3 2 2 2 1 1 0 -1 -1 -2 -3 -4 -4
11 11 11 10 10 9 9 9 8 8 8 7 7 7 7 6 6 6 6 5 5 5 5 5 4 4 4 4 3 3 2 2 2 2 1 1 -0 -1 -1 -2 -3 -4 -4
10 10 10 9 9 9 8 8 7 7 7 6 6 6 6 6 5 5 5 5 4 4 4 4 3 3 3 3 2 2 2 1 1 1 1 0 -0 -1 -1 -2 -3 -4 -5
9 9 9 8 8 8 7 7 7 6 6 6 5 5 5 5 5 4 4 4 3 3 3 3 3 2 2 2 2 1 1 1 0 0 -0 -0 -1 -1 -1 -2 -3 -4 -5
8 8 8 7 7 7 6 6 6 5 5 5 5 4 4 4 4 3 3 3 3 2 2 2 2 2 1 1 1 0 0 -0 -0 -1 -1 -1 -1 -2 -3 -3 -4 -4 -5
7 7 7 7 6 6 5 5 5 5 4 4 4 4 3 3 3 2 2 2 2 1 1 1 1 1 1 1 0 -0 -1 -1 -1 -1 -1 -2 -2 -3 -4 -4 -5 -5 -6
7 6 6 6 5 5 5 4 4 4 3 3 3 3 2 2 2 1 1 1 1 0 0 0 0 0 0 -0 -1 -1 -1 -2 -2 -2 -2 -2 -3 -3 -4 -4 -4 -5 -5
6 5 5 5 5 4 4 4 3 3 3 2 2 1 1 1 1 0 0 -0 -0 -0 -0 -0 -1 -1 -1 -1 -1 -2 -2 -2 -2 -2 -3 -3 -3 -4 -4 -4 -5 -5 -5
5 5 4 4 4 3 3 3 2 2 2 1 1 0 -0 -0 -0 -1 -1 -1 -1 -1 -1 -1 -1 -1 -1 -1 -2 -2 -3 -3 -3 -3 -3 -3 -4 -4 -5 -5 -5 -6 -5
4 4 4 3 3 3 2 2 2 1 1 0 0 -0 -1 -1 -1 -1 -1 -1 -2 -2 -2 -2 -2 -2 -2 -2 -2 -3 -3 -3 -3 -3 -4 -4 -4 -4 -5 -5 -6 -6 -6
3 3 3 3 2 2 1 1 1 1 0 -0 -0 -1 -1 -1 -2 -2 -2 -2 -2 -2 -2 -2 -2 -2 -2 -3 -3 -3 -4 -4 -4 -4 -4 -4 -5 -5 -5 -6 -6 -6 -6
3 2 2 2 2 1 1 0 0 -0 -0 -1 -1 -1 -1 -2 -2 -2 -2 -2 -3 -3 -3 -3 -3 -3 -3 -3 -4 -4 -4 -4 -4 -5 -5 -5 -5 -5 -5 -6 -6 -6 -6
2 2 1 1 1 1 0 -0 -1 -1 -1 -2 -2 -2 -2 -2 -2 -2 -3 -3 -3 -3 -3 -3 -3 -3 -3 -4 -4 -4 -4 -4 -5 -5 -5 -5 -5 -6 -6 -6 -6 -6 -6
1 1 1 0 0 -0 -1 -1 -1 -2 -2 -2 -2 -2 -2 -3 -3 -3 -3 -3 -3 -4 -4 -4 -4 -4 -4 -4 -4 -4 -4 -5 -5 -5 -5 -5 -6 -6 -6 -6 -6 -6 -6
1 0 0 -0 -1 -1 -1 -2 -2 -2 -3 -3 -3 -3 -3 -3 -3 -3 -3 -4 -4 -4 -4 -4 -4 -4 -4 -4 -5 -5 -5 -5 -5 -5 -5 -6 -6 -6 -6 -6 -6 -6 -7
0 0 -0 -1 -1 -2 -2 -2 -3 -3 -3 -4 -4 -4 -4 -4 -4 -4 -4 -4 -4 -4 -4 -4 -5 -5 -5 -5 -5 -5 -5 -5 -5 -5 -6 -6 -6 -6 -6 -6 -7 -7 -7
Wind_Speed
9 7 3 3 6 7 10 13 15 13 11 8 9 10 12 10 8 14 20 22 23 23 22 16 13 13 11 13 12 9 9 9 4 4 6 6 9 13 12 13 13 16 20
12 11 7 3 4 6 8 10 13 13 13 13 11 7 7 7 8 9 15 21 22 23 22 17 11 11 12 12 12 11 8 7 7 6 3 5 6 9 14 12 13 14 16
9 10 8 4 1 3 7 9 11 12 12 11 6 3 2 2 5 8 9 14 21 22 22 20 17 13 13 15 15 14 14 12 9 8 7 5 8 4 5 9 12 11 10
7 7 7 5 2 2 3 5 7 9 9 9 8 11 11 13 12 11 10 10 17 20 22 21 18 15 15 17 16 16 14 13 13 8 11 9 5 5 5 4 6 9 12
6 6 6 5 4 2 0 2 4 6 7 9 11 12 14 15 10 8 10 11 11 16 20 21 18 17 16 17 16 15 16 16 17 12 7 12 10 9 7 9 5 5 8
5 6 6 6 5 4 2 0 2 4 6 8 10 12 16 15 13 12 12 11 10 12 16 17 16 17 17 18 18 18 18 18 18 16 13 9 8 9 11 17 13 8 6
3 4 6 6 6 5 3 2 2 5 6 7 10 12 15 15 16 16 13 13 11 12 14 16 17 18 18 18 17 18 19 20 18 20 18 16 16 8 8 13 12 10 7
2 2 3 4 5 5 4 3 4 6 6 7 9 10 12 11 12 14 13 13 13 14 13 14 17 19 19 19 18 18 19 18 21 22 21 17 16 13 12 10 9 10 8
2 2 3 4 5 6 5 4 5 6 7 7 8 9 10 11 13 14 12 12 13 13 13 14 16 18 19 19 19 18 20 19 20 20 21 20 16 14 13 12 11 12 13
3 3 4 5 5 5 5 5 5 6 7 7 7 8 9 10 12 11 12 13 14 14 13 14 15 16 17 18 19 18 18 20 20 17 19 20 16 14 13 14 12 14 15
4 4 4 4 5 6 6 6 6 6 7 8 8 9 9 10 10 10 12 13 13 13 14 15 15 15 16 17 17 19 18 21 21 19 20 22 18 16 14 13 13 14 14
4 4 4 5 6 7 7 8 8 8 8 8 8 9 9 9 9 11 12 12 13 12 13 13 13 14 15 15 17 19 19 20 21 21 20 21 17 19 15 14 15 15 15
5 5 6 7 8 8 8 8 9 9 9 9 9 9 10 10 11 11 12 11 12 12 12 12 13 14 14 14 16 18 19 20 21 20 21 21 19 19 16 16 16 15 15
5 6 6 7 8 9 9 9 9 9 9 9 9 10 11 11 12 12 12 12 11 12 12 12 13 14 14 14 14 15 17 18 18 18 19 19 19 20 18 17 18 15 15
7 8 8 8 9 9 9 9 10 10 9 10 10 11 12 12 12 12 12 12 11 12 12 12 13 13 12 12 13 13 15 16 17 16 17 18 22 26 21 17 14 14 14
8 9 9 10 10 10 10 10 10 10 10 11 12 13 13 12 12 13 12 12 12 12 12 13 13 13 12 20 24 18 13 13 14 15 14 16 21 26 31 32 29 23 18
10 10 10 10 10 11 10 10 10 11 11 12 13 13 13 13 13 13 13 13 13 12 12 13 13 14 15 23 25 25 15 11 12 13 12 13 14 21 16 23 30 29 32
10 10 10 11 10 9 10 10 11 11 12 13 13 13 13 14 14 13 13 14 12 12 12 13 13 13 15 23 24 24 15 11 11 12 13 13 13 14 15 14 15 16 17
10 10 10 10 10 11 11 12 12 12 13 14 14 14 14 16 15 14 14 14 13 12 12 12 13 13 15 21 23 23 9 9 10 11 12 13 13 21 24 16 15 15 15
10 10 10 9 10 12 12 13 14 14 15 15 15 15 14 15 16 16 15 13 12 13 13 13 12 13 13 19 22 21 8 8 8 8 10 17 17 20 23 15 13 15 13
11 11 10 10 11 12 13 14 15 15 16 16 16 15 15 15 15 15 13 13 13 13 13 14 12 11 14 17 20 20 9 7 8 7 7 9 19 21 22 20 14 18 14
11 11 11 13 12 12 13 16 17 17 16 16 16 16 15 14 14 14 14 13 13 14 13 13 12 9 10 14 16 19 17 14 8 8 7 9 18 20 21 18 18 22 19
11 11 13 15 14 12 12 16 18 17 17 16 16 16 15 14 13 14 15 14 12 12 12 11 11 10 7 10 17 19 19 18 10 7 12 14 17 17 14 17 19 16 11
13 12 14 16 18 16 14 15 17 16 16 17 17 15 15 15 14 12 11 12 12 12 12 12 12 10 8 8 8 8 9 12 10 7 10 13 14 12 12 11 10 8 7
12 12 14 17 19 18 17 15 15 15 17 17 16 15 14 15 14 12 11 12 12 14 15 12 11 11 11 12 16 11 7 6 7 6 4 4 4 6 6 6 6 6 6
14 15 15 16 18 18 18 16 15 14 16 16 15 14 13 13 12 13 14 15 17 22 22 20 17 13 17 21 19 17 16 15 13 8 4 5 6 7 7 7 7 7 7
Wind_Direction
330 337 328 201 179 182 190 195 198 198 186 187 196 203 215 214 214 216 216 214 214 213 214 222 216 210 218 222 217 217 221 226 195 228 273 267 244 243 241 238 236 236 234
1 3 13 60 167 187 194 197 201 197 197 203 203 203 210 216 219 222 222 219 217 216 219 221 220 214 220 224 219 213 220 222 190 191 221 284 288 244 237 230 231 233 231
4 1 8 21 81 196 201 204 205 202 203 201 189 189 190 260 228 225 227 222 221 221 222 223 222 219 218 227 224 216 217 227 212 199 188 212 245 284 259 236 232 228 224
10 7 7 7 348 258 217 208 204 205 203 192 192 200 214 228 231 229 230 224 221 224 224 226 224 223 223 227 226 220 220 220 227 216 221 224 199 222 285 266 239 230 227
18 12 7 1 359 353 227 216 205 211 205 200 205 212 228 238 244 235 234 233 227 226 227 227 226 228 228 229 227 223 219 221 228 222 212 228 236 231 242 269 264 251 235
18 9 6 16 10 13 16 356 220 233 217 212 216 221 232 240 246 246 243 243 239 234 231 229 229 231 232 231 229 227 224 225 226 227 220 210 214 217 223 243 250 246 238
12 3 10 12 7 2 348 321 266 259 241 226 228 231 237 242 246 250 250 250 250 245 239 232 233 235 235 234 230 229 229 228 227 228 229 228 230 214 211 232 247 246 237
316 339 358 10 358 350 341 317 287 274 264 245 243 243 242 244 250 252 252 252 254 253 246 236 236 237 236 235 232 232 232 231 231 232 231 233 233 224 220 222 229 250 249
279 309 343 359 354 348 338 312 296 288 281 265 259 258 252 247 250 255 255 256 257 258 251 244 242 241 238 236 234 235 234 232 233 233 232 233 234 229 227 223 218 231 253
303 316 339 346 341 335 330 330 312 293 288 282 270 266 262 256 256 260 262 261 261 260 258 253 248 246 242 238 236 238 237 235 234 232 232 233 234 231 227 226 224 224 237
306 319 327 331 330 333 334 330 321 311 302 295 286 280 276 271 267 265 266 267 267 265 262 259 256 251 247 242 239 239 237 236 237 234 233 234 229 230 227 224 224 226 227
331 329 328 332 334 330 324 318 312 308 301 297 295 290 286 285 280 274 272 271 270 268 265 264 261 258 254 248 243 243 240 238 238 236 234 234 230 228 226 224 225 226 224
349 344 339 331 322 315 311 310 309 305 303 303 301 298 295 291 285 281 281 278 275 274 271 267 265 263 259 254 248 246 244 240 239 236 233 233 227 229 226 223 225 226 227
344 337 328 317 309 306 305 306 305 303 303 304 302 298 294 290 287 285 285 283 279 278 276 271 268 266 264 259 254 250 248 245 242 238 234 232 227 227 224 225 225 224 225
335 327 315 307 305 306 306 304 303 304 305 303 300 296 294 292 288 287 286 283 280 278 276 275 273 269 267 263 258 253 250 248 246 242 237 233 231 230 229 228 223 220 224
317 310 307 307 306 305 305 305 305 304 304 301 298 298 298 296 293 291 288 284 281 279 278 276 276 274 273 277 278 273 255 246 243 243 239 236 239 240 239 237 232 222 220
307 307 307 303 301 301 302 305 302 304 304 300 299 299 298 296 293 291 290 287 285 283 281 278 276 274 274 281 284 281 274 252 242 238 236 236 235 237 234 240 242 238 231
307 307 306 304 303 302 305 304 304 306 304 302 301 300 299 297 295 291 289 288 286 284 283 282 280 278 279 286 287 286 277 260 245 237 232 231 231 228 227 226 231 235 238
305 302 301 300 303 306 308 310 310 308 306 305 303 302 301 300 298 295 293 291 289 287 284 283 282 280 283 288 290 288 273 261 251 239 231 230 228 234 236 230 228 232 234
303 304 306 305 307 309 311 311 310 310 308 306 303 301 300 298 297 296 294 293 290 288 288 286 281 278 279 286 290 289 275 264 258 245 235 240 236 237 239 231 224 229 229
303 306 307 306 305 308 311 310 310 308 305 304 302 301 300 297 296 296 295 294 293 291 289 287 283 277 278 285 289 289 279 260 257 251 240 236 245 243 241 237 227 232 226
311 310 310 309 308 306 308 308 308 306 305 304 303 302 301 299 300 297 298 295 293 293 292 290 288 280 278 283 286 287 284 278 259 252 242 236 244 247 246 243 235 235 235
308 309 308 309 309 306 303 303 305 307 307 305 304 303 302 299 297 297 299 299 296 295 294 292 292 289 278 278 286 288 288 283 272 253 249 246 246 246 248 247 242 237 230
308 308 309 311 311 310 304 299 303 306 307 306 305 304 304 302 300 297 296 296 296 295 294 294 293 292 287 278 274 271 277 277 276 272 262 258 251 241 236 243 247 233 224
305 304 305 306 307 308 308 306 306 308 307 305 305 305 303 303 304 300 296 295 288 288 294 293 291 294 294 288 288 283 266 253 250 249 237 235 236 229 221 221 225 223 224
305 307 305 305 307 309 310 311 309 308 307 309 309 308 306 305 304 305 304 297 296 300 301 299 296 292 290 295 296 294 289 283 272 259 237 236 231 228 224 221 219 217 217
Height
1490 1487 1485 1484 1485 1486 1488 1490 1493 1495 1497 1499 1500 1501 1501 1502 1503 1503 1505 1506 1507 1508 1509 1509 1510 1511 1510 1511 1511 1512 1511 1510 1512 1511 1507 1505 1505 1503 1503 1504 1504 1504 1504
1490 1487 1486 1485 1485 1485 1487 1488 1490 1492 1494 1495 1496 1497 1498 1498 1498 1499 1499 1499 1500 1500 1501 1501 1501 1502 1502 1502 1502 1503 1502 1502 1504 1503 1501 1497 1493 1490 1492 1493 1494 1495 1496
1492 1490 1488 1486 1486 1486 1486 1487 1489 1490 1491 1492 1494 1494 1494 1493 1492 1492 1492 1492 1493 1493 1493 1492 1492 1492 1492 1492 1492 1493 1493 1493 1494 1494 1494 1492 1484 1483 1481 1481 1482 1484 1485
1495 1492 1490 1488 1487 1487 1487 1487 1487 1488 1489 1490 1489 1489 1488 1486 1485 1486 1485 1485 1485 1485 1484 1483 1483 1482 1482 1481 1481 1482 1482 1483 1482 1482 1481 1481 1481 1480 1474 1472 1474 1475 1475
1496 1494 1492 1490 1489 1487 1487 1486 1486 1486 1487 1487 1486 1485 1484 1482 1481 1480 1478 1477 1477 1476 1475 1474 1473 1472 1471 1470 1470 1470 1470 1469 1470 1470 1469 1469 1469 1469 1469 1463 1462 1464 1464
1498 1496 1494 1492 1490 1489 1487 1486 1486 1485 1485 1484 1483 1481 1479 1478 1476 1473 1471 1470 1468 1467 1465 1464 1463 1461 1460 1459 1458 1458 1458 1457 1457 1457 1457 1457 1456 1455 1456 1455 1452 1453 1454
1499 1497 1495 1493 1491 1489 1488 1486 1485 1484 1483 1481 1480 1478 1475 1473 1470 1468 1465 1463 1460 1458 1455 1454 1452 1450 1449 1448 1447 1446 1445 1445 1444 1443 1443 1443 1442 1444 1445 1446 1443 1443 1443
1499 1497 1495 1493 1491 1489 1487 1486 1484 1482 1481 1479 1477 1474 1471 1468 1465 1462 1459 1455 1452 1449 1447 1445 1442 1440 1438 1437 1435 1433 1432 1432 1430 1429 1430 1430 1429 1432 1432 1433 1436 1434 1432
1499 1497 1495 1494 1492 1489 1487 1485 1483 1480 1478 1475 1472 1469 1466 1463 1459 1456 1452 1448 1445 1441 1438 1435 1432 1429 1427 1426 1424 1421 1419 1419 1417 1416 1417 1417 1417 1419 1420 1422 1424 1427 1422
1498 1497 1495 1493 1491 1489 1486 1483 1481 1478 1474 1471 1468 1464 1461 1457 1453 1449 1445 1441 1437 1433 1429 1426 1422 1419 1417 1414 1412 1409 1408 1406 1404 1404 1404 1403 1404 1406 1408 1410 1411 1412 1412
1498 1496 1494 1492 1490 1487 1484 1481 1477 1474 1470 1466 1462 1458 1454 1450 1446 1441 1437 1433 1428 1424 1420 1416 1412 1408 1405 1403 1400 1397 1395 1394 1392 1392 1391 1390 1392 1393 1395 1397 1399 1400 1401
1497 1495 1493 1490 1487 1484 1480 1477 1473 1469 1464 1460 1456 1451 1447 1443 1438 1433 1428 1424 1419 1414 1410 1406 1402 1398 1394 1392 1388 1385 1383 1381 1379 1378 1378 1377 1380 1380 1382 1384 1385 1387 1388
1495 1493 1490 1487 1484 1480 1476 1472 1468 1463 1459 1454 1449 1444 1440 1435 1429 1424 1419 1414 1409 1404 1400 1396 1391 1387 1383 1380 1376 1373 1370 1368 1366 1365 1365 1365 1367 1367 1369 1371 1372 1374 1376
1493 1490 1487 1484 1480 1476 1472 1467 1462 1458 1453 1447 1442 1437 1432 1426 1421 1415 1410 1405 1400 1395 1390 1385 1381 1376 1372 1368 1365 1361 1358 1355 1353 1352 1352 1352 1353 1354 1356 1358 1359 1362 1364
1491 1487 1484 1480 1475 1470 1466 1461 1456 1451 1446 1440 1435 1429 1423 1417 1412 1406 1400 1395 1390 1385 1380 1375 1370 1366 1361 1357 1353 1349 1346 1343 1341 1340 1340 1340 1341 1342 1344 1346 1347 1350 1352
1487 1484 1479 1475 1470 1465 1460 1455 1449 1444 1439 1432 1426 1420 1414 1408 1402 1397 1391 1386 1380 1375 1370 1365 1360 1355 1351 1347 1343 1339 1335 1332 1329 1328 1328 1328 1330 1331 1333 1335 1336 1338 1340
1483 1479 1475 1470 1465 1460 1454 1448 1442 1437 1431 1424 1418 1411 1405 1399 1393 1387 1382 1376 1371 1365 1360 1355 1349 1344 1340 1337 1333 1329 1325 1321 1319 1318 1317 1317 1318 1320 1321 1323 1326 1328 1329
1479 1474 1470 1465 1460 1454 1448 1442 1436 1429 1422 1416 1409 1403 1397 1390 1384 1378 1373 1367 1362 1356 1350 1345 1340 1334 1330 1327 1323 1319 1315 1312 1309 1308 1307 1307 1307 1309 1311 1312 1313 1315 1318
1475 1470 1465 1460 1454 1448 1442 1435 1428 1421 1415 1408 1401 1395 1389 1382 1376 1370 1364 1358 1353 1346 1341 1336 1330 1325 1321 1318 1314 1310 1306 1302 1300 1299 1298 1298 1298 1299 1302 1302 1302 1304 1306
1470 1465 1460 1454 1448 1442 1435 1428 1420 1414 1407 1401 1394 1388 1382 1375 1368 1361 1355 1349 1344 1337 1332 1326 1322 1317 1312 1309 1305 1302 1298 1294 1292 1290 1290 1290 1289 1290 1292 1293 1293 1294 1296
1465 1459 1454 1448 1442 1436 1428 1421 1414 1407 1400 1393 1386 1380 1374 1367 1360 1353 1347 1341 1335 1328 1323 1317 1312 1308 1304 1300 1297 1294 1290 1287 1284 1282 1281 1281 1282 1282 1283 1285 1286 1286 1290
1459 1453 1447 1441 1435 1429 1422 1414 1407 1400 1393 1385 1378 1371 1365 1358 1352 1345 1338 1332 1326 1320 1314 1308 1303 1299 1296 1292 1288 1286 1283 1280 1278 1275 1274 1274 1274 1275 1276 1277 1278 1281 1284
1453 1447 1441 1434 1427 1422 1415 1407 1399 1392 1385 1377 1370 1363 1356 1350 1344 1337 1330 1324 1318 1312 1306 1301 1296 1291 1288 1284 1281 1278 1276 1273 1271 1269 1268 1268 1267 1268 1269 1270 1272 1275 1276
1447 1441 1434 1426 1419 1413 1407 1401 1393 1385 1377 1369 1361 1354 1347 1341 1335 1329 1323 1317 1311 1305 1299 1294 1289 1284 1280 1277 1274 1271 1268 1266 1264 1263 1262 1262 1262 1262 1263 1264 1266 1267 1269
1441 1434 1428 1420 1412 1405 1398 1392 1385 1377 1369 1361 1354 1347 1340 1333 1327 1321 1316 1310 1304 1300 1294 1288 1284 1279 1273 1270 1268 1265 1262 1260 1258 1257 1256 1255 1256 1256 1257 1258 1259 1261 1263
1434 1427 1420 1413 1405 1397 1390 1383 1377 1370 1362 1353 1346 1339 1333 1326 1320 1313 1307 1302 1297 1292 1287 1282 1278 1272 1269 1264 1261 1259 1256 1254 1253 1252 1250 1249 1250 1250 1251 1252 1253 1254 1256